| time (UTC) | temp C | wind direction | speed KPH | gust KPH | rain 1hr cm | rain 24hr cm | rain mn cm | humidity % | barometer mb |
| 20260510042438 | 10 | 328 | 11.3 | 12.9 | 0.00 | 0.38 | 0.00 | 79 | 1007.5 |
| 20260510040938 | 10 | 336 | 8.0 | 12.9 | 0.00 | 0.38 | 0.00 | 77 | 1007.5 |
| 20260510035438 | 11 | 80 | 9.7 | 14.5 | 0.05 | 0.38 | 0.38 | 77 | 1007.1 |
| 20260510033938 | 11 | 45 | 8.0 | 14.5 | 0.05 | 0.38 | 0.38 | 78 | 1006.8 |
| 20260510032441 | 12 | 344 | 8.0 | 14.5 | 0.05 | 0.38 | 0.38 | 77 | 1006.1 |
| 20260510030939 | 13 | 340 | 8.0 | 11.3 | 0.03 | 0.36 | 0.36 | 91 | 1005.4 |
| 20260510025438 | 13 | 341 | 8.0 | 9.7 | 0.00 | 0.33 | 0.33 | 90 | 1004.7 |
| 20260510023938 | 13 | 339 | 3.2 | 8.0 | 0.00 | 0.33 | 0.33 | 88 | 1005.1 |
| 20260510022439 | 14 | 345 | 3.2 | 8.0 | 0.00 | 0.33 | 0.33 | 86 | 1004.1 |
| 20260510020940 | 13 | 301 | 3.2 | 4.8 | 0.00 | 0.33 | 0.33 | 89 | 1004.4 |
| 20260510015440 | 14 | 254 | 12.9 | 16.1 | 0.00 | 0.33 | 0.33 | 89 | 1004.4 |
| 20260510013938 | 14 | 299 | 3.2 | 8.0 | 0.00 | 0.33 | 0.33 | 86 | 1003.7 |
| 20260510012438 | 14 | 294 | 8.0 | 9.7 | 0.00 | 0.33 | 0.33 | 86 | 1003.4 |
| 20260510010938 | 14 | 292 | 8.0 | 14.5 | 0.00 | 0.33 | 0.33 | 85 | 1003.1 |
| 20260510005439 | 14 | 299 | 8.0 | 9.7 | 0.00 | 0.33 | 0.33 | 86 | 1003.0 |
| 20260510003937 | 15 | 295 | 9.7 | 11.3 | 0.00 | 0.33 | 0.33 | 84 | 1003.0 |
| 20260510002547 | 15 | 301 | 11.3 | 12.9 | 0.00 | 0.33 | 0.33 | 83 | 1003.0 |
| 20260510001047 | 15 | 292 | 3.2 | 4.8 | 0.00 | 0.33 | 0.33 | 84 | 1002.7 |
| 20260509235438 | 15 | 298 | 11.3 | 12.9 | 0.00 | 0.33 | 0.33 | 83 | 1002.4 |
| 20260509233938 | 13 | 265 | 12.9 | 19.3 | 0.00 | 0.33 | 0.33 | 89 | 1002.4 |
| 20260509232438 | 13 | 268 | 9.7 | 20.9 | 0.00 | 0.33 | 0.33 | 88 | 1002.0 |
| 20260509230938 | 13 | 268 | 9.7 | 16.1 | 0.00 | 0.33 | 0.33 | 90 | 1002.0 |
| 20260509225438 | 13 | 263 | 9.7 | 16.1 | 0.00 | 0.33 | 0.33 | 89 | 1001.7 |
| 20260509223938 | 14 | 250 | 11.3 | 19.3 | 0.00 | 0.33 | 0.33 | 86 | 1001.7 |
| 20260509222439 | 16 | 255 | 8.0 | 11.3 | 0.03 | 0.33 | 0.33 | 79 | 1001.4 |
| 20260509220940 | 16 | 294 | 4.8 | 11.3 | 0.05 | 0.33 | 0.33 | 86 | 1001.4 |
| 20260509215438 | 14 | 269 | 8.0 | 11.3 | 0.30 | 0.33 | 0.33 | 91 | 1001.4 |
| 20260509213937 | 13 | 266 | 9.7 | 16.1 | 0.33 | 0.33 | 0.33 | 93 | 1001.4 |
| 20260509212439 | 12 | 286 | 8.0 | 11.3 | 0.30 | 0.30 | 0.30 | 95 | 1001.7 |
| 20260509210938 | 11 | 299 | 8.0 | 12.9 | 0.28 | 0.28 | 0.28 | 96 | 1001.4 |
| 20260509205438 | 15 | 355 | 22.5 | 29.0 | 0.03 | 0.03 | 0.03 | 86 | 1002.0 |
| 20260509203937 | 13 | 288 | 9.7 | 11.3 | 0.00 | 0.00 | 0.00 | 93 | 1001.4 |
| 20260509202438 | 12 | 232 | 16.1 | 22.5 | 0.00 | 0.00 | 0.00 | 95 | 1000.0 |
| 20260509200937 | 12 | 257 | 11.3 | 14.5 | 0.00 | 0.00 | 0.00 | 95 | 1001.0 |
| 20260509195438 | 12 | 232 | 8.0 | 14.5 | 0.00 | 0.00 | 0.00 | 94 | 1001.4 |
| 20260509193938 | 13 | 271 | 14.5 | 16.1 | 0.00 | 0.00 | 0.00 | 90 | 1001.4 |
| 20260509192438 | 13 | 260 | 12.9 | 20.9 | 0.00 | 0.00 | 0.00 | 92 | 1001.4 |
| 20260509190938 | 13 | 240 | 12.9 | 16.1 | 0.00 | 0.00 | 0.00 | 92 | 1001.4 |
| 20260509185439 | 13 | 254 | 14.5 | 16.1 | 0.00 | 0.00 | 0.00 | 92 | 1001.7 |
| 20260509183937 | 12 | 257 | 11.3 | 16.1 | 0.00 | 0.00 | 0.00 | 94 | 1002.4 |
| 20260509182438 | 12 | 238 | 8.0 | 9.7 | 0.00 | 0.00 | 0.00 | 95 | 1002.4 |
| 20260509180938 | 12 | 243 | 9.7 | 12.9 | 0.00 | 0.00 | 0.00 | 95 | 1002.4 |
| 20260509175438 | 12 | 236 | 12.9 | 19.3 | 0.00 | 0.00 | 0.00 | 95 | 1002.7 |
| 20260509173938 | 12 | 231 | 11.3 | 16.1 | 0.00 | 0.00 | 0.00 | 95 | 1002.7 |
| 20260509172438 | 13 | 247 | 12.9 | 20.9 | 0.00 | 0.00 | 0.00 | 93 | 1002.4 |
| 20260509170938 | 13 | 227 | 11.3 | 16.1 | 0.00 | 0.00 | 0.00 | 94 | 1002.4 |
| 20260509165437 | 12 | 234 | 9.7 | 12.9 | 0.00 | 0.00 | 0.00 | 95 | 1002.7 |
| 20260509163937 | 12 | 222 | 9.7 | 12.9 | 0.00 | 0.00 | 0.00 | 95 | 1003.0 |
| 20260509162439 | 12 | 230 | 9.7 | 14.5 | 0.00 | 0.00 | 0.00 | 95 | 1003.0 |
| 20260509160938 | 13 | 234 | 14.5 | 16.1 | 0.00 | 0.00 | 0.00 | 93 | 1003.0 |
| 20260509153938 | 13 | 255 | 12.9 | 19.3 | 0.00 | 0.00 | 0.00 | 94 | 1003.4 |
| 20260509152437 | 12 | 258 | 19.3 | 22.5 | 0.00 | 0.00 | 0.00 | 95 | 1004.1 |
| 20260509150937 | 12 | 251 | 16.1 | 24.1 | 0.00 | 0.00 | 0.00 | 95 | 1003.7 |
| 20260509145438 | 12 | 246 | 11.3 | 16.1 | 0.00 | 0.00 | 0.00 | 96 | 1004.1 |
| 20260509143937 | 12 | 231 | 11.3 | 12.9 | 0.00 | 0.00 | 0.00 | 96 | 1004.1 |
| 20260509142438 | 11 | 267 | 14.5 | 19.3 | 0.00 | 0.00 | 0.00 | 98 | 1004.1 |
| 20260509140938 | 11 | 253 | 8.0 | 12.9 | 0.00 | 0.00 | 0.00 | 99 | 1004.1 |
| 20260509135437 | 11 | 236 | 9.7 | 12.9 | 0.00 | 0.00 | 0.00 | 99 | 1004.1 |
| 20260509133938 | 11 | 249 | 9.7 | 12.9 | 0.00 | 0.00 | 0.00 | 99 | 1004.1 |
| 20260509132438 | 11 | 229 | 9.7 | 14.5 | 0.00 | 0.00 | 0.00 | 99 | 1004.1 |
| 20260509130937 | 11 | 248 | 4.8 | 9.7 | 0.00 | 0.00 | 0.00 | 99 | 1004.2 |
| 20260509125437 | 11 | 249 | 8.0 | 11.3 | 0.00 | 0.00 | 0.00 | 99 | 1004.2 |
| 20260509123937 | 11 | 250 | 8.0 | 9.7 | 0.00 | 0.00 | 0.00 | 99 | 1004.4 |
| 20260509122437 | 11 | 239 | 9.7 | 12.9 | 0.00 | 0.00 | 0.00 | 99 | 1004.7 |
| 20260509120938 | 10 | 236 | 1.6 | 8.0 | 0.00 | 0.00 | 0.00 | 99 | 1004.4 |
| 20260509115439 | 10 | 235 | 4.8 | 8.0 | 0.00 | 0.00 | 0.00 | 99 | 1004.7 |
| 20260509113937 | 10 | 232 | 1.6 | 3.2 | 0.00 | 0.00 | 0.00 | 99 | 1004.7 |
| 20260509112440 | 10 | 242 | 4.8 | 8.0 | 0.00 | 0.00 | 0.00 | 99 | 1004.7 |
| 20260509110937 | 11 | 259 | 8.0 | 9.7 | 0.00 | 0.00 | 0.00 | 99 | 1004.4 |
| 20260509105437 | 10 | 275 | 4.8 | 12.9 | 0.00 | 0.00 | 0.00 | 99 | 1004.4 |
| 20260509103937 | 10 | 262 | 4.8 | 11.3 | 0.00 | 0.00 | 0.00 | 99 | 1004.4 |
| 20260509102438 | 10 | 256 | 8.0 | 12.9 | 0.00 | 0.00 | 0.00 | 99 | 1004.4 |
| 20260509100938 | 10 | 245 | 4.8 | 8.0 | 0.00 | 0.00 | 0.00 | 99 | 1004.4 |
| 20260509095438 | 10 | 258 | 4.8 | 9.7 | 0.00 | 0.00 | 0.00 | 99 | 1004.4 |
| 20260509093937 | 10 | 258 | 4.8 | 8.0 | 0.00 | 0.00 | 0.00 | 99 | 1004.7 |
| 20260509092438 | 10 | 276 | 4.8 | 4.8 | 0.00 | 0.00 | 0.00 | 99 | 1004.4 |
| 20260509090937 | 10 | 240 | 8.0 | 9.7 | 0.00 | 0.00 | 0.00 | 99 | 1004.7 |
| 20260509085438 | 10 | 247 | 8.0 | 12.9 | 0.00 | 0.00 | 0.00 | 99 | 1004.9 |
| 20260509083938 | 10 | 259 | 9.7 | 11.3 | 0.00 | 0.00 | 0.00 | 99 | 1004.7 |
| 20260509082438 | 10 | 253 | 8.0 | 12.9 | 0.00 | 0.00 | 0.00 | 99 | 1005.1 |
| 20260509080938 | 10 | 246 | 8.0 | 11.3 | 0.00 | 0.00 | 0.00 | 99 | 1005.1 |
| 20260509075438 | 10 | 246 | 4.8 | 8.0 | 0.00 | 0.00 | 0.00 | 99 | 1004.7 |
| 20260509073937 | 10 | 257 | 8.0 | 9.7 | 0.00 | 0.00 | 0.00 | 99 | 1005.1 |
| 20260509072438 | 10 | 260 | 8.0 | 11.3 | 0.00 | 0.00 | 0.00 | 99 | 1005.1 |
| 20260509070937 | 10 | 276 | 9.7 | 12.9 | 0.00 | 0.00 | 0.00 | 99 | 1005.4 |
| 20260509065438 | 10 | 256 | 8.0 | 8.0 | 0.00 | 0.00 | 0.00 | 99 | 1005.4 |
| 20260509063937 | 10 | 259 | 4.8 | 9.7 | 0.00 | 0.00 | 0.00 | 99 | 1005.8 |
| 20260509062437 | 10 | 247 | 4.8 | 9.7 | 0.00 | 0.00 | 0.00 | 99 | 1005.8 |
| 20260509060938 | 10 | 235 | 4.8 | 9.7 | 0.00 | 0.00 | 0.00 | 99 | 1005.8 |
| 20260509055437 | 10 | 241 | 4.8 | 8.0 | 0.00 | 0.00 | 0.00 | 98 | 1005.8 |
| 20260509053937 | 10 | 259 | 3.2 | 11.3 | 0.00 | 0.00 | 0.00 | 98 | 1005.8 |
| 20260509052438 | 10 | 247 | 4.8 | 9.7 | 0.00 | 0.00 | 0.00 | 99 | 1006.1 |
| 20260509050938 | 10 | 267 | 8.0 | 9.7 | 0.00 | 0.00 | 0.00 | 99 | 1006.4 |
| 20260509045437 | 10 | 255 | 8.0 | 9.7 | 0.00 | 0.00 | 0.00 | 99 | 1006.4 |
| 20260509043936 | 10 | 253 | 8.0 | 9.7 | 0.00 | 0.00 | 0.00 | 99 | 1006.4 |